www.pogodaiklimat.ru

Погода и климат >> Архив погоды >> Оман >> Назва


ПОГОДА в Назве

  • Прогноз погоды в Назве
  • Монитор погоды в Назве

АРХИВ ПОГОДЫ в Назве

Время (UTC), дата Ветер
(напр.,м/с)
 
Видим.   Явления Облачность Т
(С)
Тd
(С)
f
(%)
Тe
(С)
Тes
(С)
Комфортность P
(гПа)
Po
(гПа)
Тmin
(С)
Tmax
(С)
R
(мм)
R24
(мм)
S
(см)
21 12.07 В 2 н/о н/о +33.1 +14.8 33 +35 +35 душно 996.5 948.3
00 13.07 СВ 1 н/о н/о +30.6 +16.4 42 +34 +34 очень
душно
996.2 947.7
03 13.07 ЮВ 1 н/о н/о +30.4 +17.4 46 +34 +34 очень
душно
997.7 949.1
06 13.07 В 1 н/о н/о +37.6 +13.0 23 +38 +38 очень
жарко
996.8 949.3 +28.6
09 13.07 ЮВ 3 н/о н/о +41.9 +2.6 9 +38 +38 очень
жарко
994.7 947.8
12 13.07 ЮВ 5 н/о н/о +42.4 +3.2 9 +39 +39 очень
жарко
992.9 946.1
15 13.07 ЮВ 4 10 км 1/1 900 м
[Sc]
+40.2 +2.8 10 +37 +37 очень
жарко
995.2 947.0
18 13.07 В 4 н/о н/о +34.7 +17.9 37 +39 +39 очень
душно
998.0 950.0 +43.6
21 13.07 В 3 н/о н/о +28.9 +21.1 63 +36 +36 очень
душно
998.8 950.0
00 14.07 В 1 н/о н/о +28.4 +20.3 62 +35 +35 очень
душно
998.7 949.8
03 14.07 Ю 2 н/о н/о +27.3 +21.1 69 +34 +34 очень
душно
999.8 950.6
06 14.07 Ю 1 10 км ясно +33.1 +19.6 45 +39 +58 опасность
солнечного
удара
1000.0 950.8 +26.9
09 14.07 В 3 10 км ясно +39.8 +13.4 21 +40 +59 опасность
солнечного
удара
996.8 948.6
12 14.07 С 2 н/о н/о +41.0 +6.2 12 +38 +38 очень
жарко
993.5 946.5
15 14.07 Ю 4 н/о н/о +39.4 +9.0 16 +38 +38 очень
жарко
994.1 946.9
18 14.07 ЮВ 4 н/о н/о +34.6 +19.3 41 +40 +40 очень
душно
997.3 949.4 +42.3
21 14.07 ЮВ 3 н/о н/о +31.3 +20.7 53 +38 +38 очень
душно
997.1 948.7
00 15.07 ЮВ 1 н/о н/о +28.9 +20.6 61 +36 +36 очень
душно
996.9 948.2
03 15.07 Ю 2 н/о н/о +28.0 +20.9 65 +35 +35 очень
душно
997.9 949.0
06 15.07 Ю 3 н/о н/о +35.6 +19.8 40 +41 +41 опасность
перегрева
996.2 948.5 +27.9
09 15.07 З 5 10 км ясно +41.8 +10.9 16 +41 +53 опасность
перегрева
994.3 946.5
12 15.07 ЮЗ 5 10 км ясно +43.5 +9.1 13 +42 +46 опасность
перегрева
991.3 943.9
15 15.07 С 3 10 км 4/4 750 м
[Sc]
+40.5 +6.8 13 +38 +38 очень
жарко
992.7 944.7
18 15.07 Ю 2 н/о н/о +38.1 +9.1 17 +36 +36 очень
жарко
993.4 946.0 +44.2
21 15.07 В 3 н/о н/о +33.8 +18.8 41 +39 +39 очень
душно
994.0 946.1
00 16.07 В 4 н/о н/о +30.5 +20.3 55 +37 +37 очень
душно
994.7 946.4
03 16.07 В 2 н/о н/о +30.1 +20.3 56 +37 +37 очень
душно
996.1 947.6
06 16.07 Ю 1 н/о н/о +35.5 +19.9 40 +41 +41 опасность
перегрева
995.7 948.0 +29.5
09 16.07 ЮЗ 4 9000 м мгла 4/4 750 м
[Sc diur, vesp]
+41.3 +8.5 14 +39 +48 очень
жарко
993.9 946.0
12 16.07 Ю 4 9000 м мгла 5/4 750 м
[Sc diur, vesp Ac lent]
+43.0 +3.4 9 +40 +42 очень
жарко
992.1 944.5
15 16.07 Ю 3 9000 м мгла 4/0
[Ac lent]
+41.7 +0.8 8 +38 +38 очень
жарко
993.1 945.2
18 16.07 Ю 4 н/о н/о +36.9 +10.9 21 +36 +36 очень
жарко
995.3 947.7 +43.8
21 16.07 В 3 н/о н/о +31.9 +18.0 44 +36 +36 очень
душно
996.2 947.9
00 17.07 В 1 н/о н/о +30.4 +17.4 46 +34 +34 очень
душно
996.4 947.9
03 17.07 ЮВ 1 н/о н/о +30.1 +18.0 48 +35 +35 очень
душно
997.3 948.7
06 17.07 ЮВ 1 н/о н/о +36.5 +15.5 29 +38 +38 очень
душно
996.5 948.8 +29.1
09 17.07 Ю 3 10 км ясно +42.4 +5.8 11 +40 +59 опасность
солнечного
удара
995.0 947.2
12 17.07 Ю 3 н/о н/о +44.2 +3.4 8 +41 +41 опасность
перегрева
991.7 945.2
15 17.07 СЗ 2 н/о н/о +42.6 +1.4 8 +39 +39 очень
жарко
992.6 945.9
18 17.07 ЮВ 2 н/о н/о +39.3 +3.5 11 +36 +36 очень
жарко
994.7 947.4 +45.0
21 17.07 В 4 н/о н/о +32.9 +19.2 44 +38 +38 очень
душно
996.1 948.0
00 18.07 ЮВ 2 н/о н/о +31.6 +18.6 46 +36 +36 очень
душно
996.2 947.9
03 18.07 В 2 н/о н/о +30.5 +18.7 49 +35 +35 очень
душно
997.3 948.8
06 18.07 В 1 н/о н/о +36.6 +16.9 31 +39 +39 очень
душно
996.3 948.7 +30.4
09 18.07 Ю 3 н/о н/о +42.5 +8.3 13 +40 +40 очень
жарко
993.5 946.8
12 18.07 ЮЗ 4 10 км 5/5 750 м
[Sc diur, vesp]
+44.0 +2.5 8 +41 +43 опасность
перегрева
991.9 944.4
15 18.07 ЮЗ 4 н/о н/о +42.2 +5.0 10 +39 +39 очень
жарко
991.8 945.1
18 18.07 В 2 н/о н/о +39.5 +11.0 18 +38 +38 очень
жарко
993.7 946.5 +44.9
21 18.07 В 4 н/о н/о +33.3 +19.9 45 +39 +39 очень
душно
994.8 946.8
00 19.07 ЮВ 2 н/о н/о +31.6 +19.0 47 +37 +37 очень
душно
995.1 946.8
03 19.07 Ю 2 н/о н/о +31.1 +19.6 50 +37 +37 очень
душно
995.9 947.6
06 19.07 СВ 1 н/о н/о +36.2 +19.5 38 +42 +42 опасность
перегрева
995.0 947.5 +30.9
09 19.07 З 2 10 км ясно +42.0 +15.2 21 +43 +66 опасность
перегрева
993.7 946.0
12 19.07 СЗ 6 10 км 6/6 750 м
[Sc]
+37.6 +14.9 26 +39 +40 очень
душно
993.1 944.8 7
15 19.07 ЮВ 1 10 км ясно +38.8 +17.0 28 +41 +41 опасность
перегрева
994.0 945.9
18 19.07 ЮВ 3 н/о н/о +35.1 +16.6 33 +38 +38 очень
душно
996.5 948.6 +44.3

 

Местоположение метеостанции Назва (Оман): широта 22.85 долгота 57.53 высота над уровнем моря 460 м.

В архиве по умолчанию представлена погода в Назве за последнюю неделю. Архивные данные за месяц целиком и за предыдущие месяцы, начиная с января 2011 года, Вы можете получить, выбрав интересующий диапазон дат из раскрывающегося списка и нажав кнопку "Ввод!".


*Определитесь, кто Вы:
робот инопланетянин человек

Внимание! Время в таблицах - всемирное. Для получения местного времени необходимо прибавить поправку, которая равна 4 ч.

Смотрите также архив погоды в соседних городах и на ближайших метеорологических станциях:

Погода в Саике (Оман) (27 км)
Погода в Бахле (Оман) (28 км)
Погода на Эш-Шам (Оман) (51 км)
Погода в Адаме (Оман) (52 км)
Погода в Рустаке (Оман) (62 км)
Погода в Самаиле (Оман) (65 км)
Погода в Аль Мудайби (Оман) (72 км)
Погода в Ибре (Оман) (100 км)
Погода в Эс-Сувейке (Оман) (111 км)
Погода в Сибе (Оман) (112 км)

Пояснения к столбцам:

Ветер - указаны скорость ветра в м/с - средняя за 10 мин, порывы в срок и между сроками (в фигурных скобках) и направление, откуда дует ветер: С - северный, СВ - северо-восточный, В - восточный, ЮВ - юго-восточный, Ю - южный, ЮЗ - юго-западный, З - западный, СЗ - северо-западный.
Видимость - горизонтальная дальность видимости в метрах или километрах. При видимости от 1 до 10 км при отсутствии осадков обычно наблюдается дымка, при ухудшении видимости до 1 км и менее - туман. В сухую погоду видимость может ухудшаться дымом, пылью или мглою.
Явления - указаны атмосферные явления, наблюдавшиеся в срок или в последний час перед сроком; фигурными скобками обозначены явления, наблюдавшиеся между сроками (за 1-3 часа до срока); квадратными скобками обозначены град или гололедные отложения с указанием их диаметра в мм.
Облачность - указаны через наклонную черту общая и нижняя облачность в баллах и высота нижней границы облаков в метрах; квадратными скобками обозначены формы облаков: Ci - перистые, Cs - перисто-слоистые, Cc - перисто-кучевые, Ac - высококучевые, As - высокослоистые, Sc - слоисто-кучевые, Ns - слоисто-дождевые, Cu - кучевые, Cb - кучево-дождевые. Подробнее классификацию облаков см. в Атласе облаков (PDF).
T - Температура воздуха - температура, измеренная на высоте 2 м над землей.
Td - Температура точки росы - температура, при понижении до которой содержащийся в воздухе водяной пар достигнет насыщения.
f - Относительная влажность воздуха - влажноcть воздуха, измеренная на высоте 2 м над землей.
Te - Эффективная температура - температура, которую ощущает одетый по сезону человек в тени. Характеристика душности погоды. При расчете учитывается влияние влажности воздуха и скорости ветра на теплоощущения человека.
Tes - Эффективная температура на солнце - температура, которую ощущает человек, с поправкой на солнечный нагрев. Характеристика знойности погоды. Зависит от высоты солнца над горизонтом, облачности и скорости ветра. Ночью, в пасмурную погоду, а также при ветре 12 м/с и более поправка равна нулю.
P - Атмосферное давление - приведенное к уровню моря атмосферное давление.
Po - Атмосферное давление - измеренное на уровне метеостанции атмосферное давление.
Tmin - Минимальная температура - минимум температуры воздуха на высоте 2 м над землей.
Tmax - Максимальная температура - максимум температуры воздуха на высоте 2 м над землей.
R - Количество осадков - Количество выпавших осадков за период времени, мм. При наведении курсора мыши на число - период времени, за который выпало указанное количество осадков.
R24 - Количество осадков - Количество выпавших осадков за 24 часа, мм.
S - Снежный покров - Высота снежного покрова, см. При наведении курсора мыши на число - состояние снежного покрова и степень покрытия местности в баллах.